Regional Weather Roundup
Issued by NWS Upton, NY

Current Version | Previous Version | Graphics & Text | Print | Product List | Glossary Off
Versions: 1 2 3 4 5 6 7 8 9 10 11 12 13 14 15 16 17 18 19 20 21 22 23 24 25 26 27 28 29 30 31 32 33 34 35 36 37 38 39 40 41 42 43 44 45 46 47 48 49 50

450
ASUS41 KOKX 092104
RWROKX

REGIONAL WEATHER ROUNDUP
NATIONAL WEATHER SERVICE NEW YORK NY
400 PM EST TUE FEB 09 2016

NOTE: "FAIR" INDICATES FEW OR NO CLOUDS BELOW 12,000 FEET WITH NO
SIGNIFICANT WEATHER AND/OR OBSTRUCTIONS TO VISIBILITY.

NYZ071-072-176-178-NJZ106-104-092200-
NEW YORK CITY METRO AREA


CITY           SKY/WX    TMP DP  RH WIND       PRES   REMARKS
CENTRAL PARK   CLOUDY    36  22  56 E3        29.59S
LAGUARDIA APRT CLOUDY    34  22  61 E7        29.57S WCI  28
KENNEDY INTL   PTSUNNY   36  22  56 N3        29.58S
NEWARK/LIBERTY CLOUDY    36  25  64 CALM      29.58R
BRNX BOT. GARD   N/A     32  23  69 E3        29.59R
TETERBORO      CLOUDY    35  22  58 CALM      29.57S
$$

NYZ177-179-078>081-092200-
LONG ISLAND NEW YORK

CITY           SKY/WX    TMP DP  RH WIND       PRES   REMARKS
FARMINGDALE    SUNNY     33  22  63 NE6       29.58S WCI  28
ISLIP          CLOUDY    32  22  66 N5        29.56S WCI  27
SHIRLEY        PTSUNNY   31  23  72 N5        29.59R WCI  26
RIVERHEAD        N/A     32  23  69 E1        29.56S
WESTHAMPTON    MOSUNNY   30  22  72 N7        29.59R WCI  23
EAST HAMPTON   PTSUNNY   31  24  75 N3        29.57R
MONTAUK POINT    N/A     33  24  69 N5        29.58R WCI  29
$$

NYZ052-065-067-092200-
HUDSON VALLEY

CITY           SKY/WX    TMP DP  RH WIND       PRES   REMARKS
WHITE PLAINS   PTSUNNY   31  22  69 CALM      29.56R
NEWBURGH       PTSUNNY   32  23  69 VRB5      29.56R WCI  27
MONTGOMERY     CLOUDY    32  23  69 SW6       29.55R WCI  26
POUGHKEEPSIE   CLOUDY    33  20  58 CALM      29.57R
ALBANY         FLURRIES  30  19  63 CALM      29.56R
$$

NJZ001-105-106-008-010-013-015-019>022-104-092200-
NEW JERSEY

CITY           SKY/WX    TMP DP  RH WIND       PRES   REMARKS
NEWARK/LIBERTY CLOUDY    36  25  64 CALM      29.58R
TETERBORO      CLOUDY    35  22  58 CALM      29.57S
CALDWELL       CLOUDY    34  23  64 CALM      29.58R
MORRISTOWN     CLOUDY    32  25  74 SE3       29.58S
SOMERVILLE     CLOUDY    34  25  69 CALM      29.56R
SUSSEX         CLOUDY    33  24  69 CALM      29.54S
ANDOVER          N/A     33  24  69 CALM      29.54S
TRENTON        CLOUDY    34  27  75 E3        29.56S
MILLVILLE      CLOUDY    38  34  85 E9        29.54S WCI  31
ATLANTIC CITY  CLOUDY    37  28  70 NE15      29.55R WCI  28
WRIGHTSTOWN    FLURRIES  35  34  99 E7        29.54S WCI  29
TOMS RIVER     CLOUDY    34  27  75 NE8       29.58R WCI  27
BELMAR         CLOUDY    34  21  60 NE3       29.57S
$$

PAZ047>061-062-071-092200-
EASTERN PENNSYLVANIA

CITY           SKY/WX    TMP DP  RH WIND       PRES   REMARKS
PHILADELPHIA   LGT SNOW  36  31  82 NE9       29.56S WCI  29
ALLENTOWN      LGT SNOW  33  28  81 E5        29.55S WCI  29
SCRANTON       LGT SNOW  34  26  72 W3        29.50R
$$

CTZ002-004>006-009-010-012-RIZ004-006-007-MAZ004-011-015-092200-
SOUTHERN NEW ENGLAND
 IN CT

CITY           SKY/WX    TMP DP  RH WIND       PRES   REMARKS
BRADLEY INTL   PTSUNNY   29  18  63 CALM      29.58R
HARTFORD       MOSUNNY   32  19  58 NW5       29.59R WCI  27
DANBURY        MOSUNNY   34  18  52 CALM      29.56S
WTRBRY/OXFORD  NOT AVBL
BRIDGEPORT     MOSUNNY   31  22  69 E6        29.58S WCI  25
MERIDEN        SUNNY     32  19  58 CALM      29.59R
NEW HAVEN      MOSUNNY   32  21  64 VRB3      29.58R
CHESTER        CLOUDY    32  23  69 NE3       29.57R
GROTON         MOSUNNY   32  23  69 N3        29.58R
WILLIMANTIC    CLOUDY    32  19  58 CALM      29.58R

 IN RI

CITY           SKY/WX    TMP DP  RH WIND       PRES   REMARKS
PROVIDENCE     CLOUDY    30  20  66 N9        29.59R WCI  22
BLOCK ISLAND   MOSUNNY   30  25  80 N10       29.55S WCI  21
WESTERLY       CLOUDY    33  21  61 NE6       29.58R WCI  28

 IN MA

CITY           SKY/WX    TMP DP  RH WIND       PRES   REMARKS
BOSTON         CLOUDY    29  18  63 VRB3      29.60R
WORCESTER      SUNNY     26  16  65 VRB3      29.52S
WESTFIELD      MOSUNNY   28  17  63 CALM      29.57S
PROVINCETOWN   CLOUDY    32  25  75 N12       29.58R WCI  23
NANTUCKET      CLOUDY    34  26  72 N13       29.53S WCI  25
$$

ANZ330-335-338-340-345-350-353-355-092200-
COASTAL MARINE OBSERVATIONS


STATION/POSITION TIME  SKY/WX   TEMP    WIND        PRES    VSBY  WAVE
                                AIR SEA DIR/SP/G                  HT/PER
                 (UTC)          (F)     (DEG/KT/KT) (MB)    (MI)  (FT/S)
NY HARB ENTRANCE 1950            33 43   10/  8/ 10 1001.0          6/14
4S FIRE IS       NOT AVBL
20S FIRE ISLAND  1950            34 44   20/ 12/ 14 1000.7          5/11
GREAT SOUTH BAY  NOT AVBL
23SW MTP         2050            33 45   10/ 12/ 16 1000.9          6/14
HUDSON CANYON    1950            40 49               999.2          8/14
KINGS POINT      2000            33 38   50/  5/  7 1000.8
EXECUTION ROCKS  NOT AVBL
CENTRAL LI SOUND 2000            33      CALM  /  2   N/A           0
EASTERN LI SOUND 2000            33 42  360/  6/  8   N/A
ROBBINS REEF     2000            33        CALM     1000.7
$$


>>>>>>>>>>>>>>>>>>>>>>>>>>>> KEY <<<<<<<<<<<<<<<<<<<<<<<<<<<
>                                                          <
>     SKY/WX - SKY CONDITION/PRESENT WEATHER               <
>     TMP    - TEMPERATURE IN FAHRENHEIT                   <
>     DP     - DEWPOINT IN FAHRENHEIT                      <
>     RH     - RELATIVE HUMIDITY IN PERCENT                <
>     WIND   - DIRECTION AND SPEED IN MPH                  <
>     PRES   - MEAN SEA LEVEL PRESSURE IN INCHES OF HG     <
>     WCI    - WIND CHILL INDEX                            <
>     VSB    - VISIBILITY IN MILES                         <
>     HX     - HEAT INDEX                                  <
>     TC     - TEMPERATURE IN CELSIUS                      <
>     VRB    - VARIABLE WIND DIRECTION                     <
>                                                          <
>>>>>>>>>>>>>>>>>>>>>>>>>>>> KEY <<<<<<<<<<<<<<<<<<<<<<<<<<<






USA.gov is the U.S. government's official web portal to all federal, state and local government web resources and services.